User: anonymous   Login
Location: Unspecified
(0.0000°N, 0.0000°E)
Time: 01:32:38
(UTC+00:00)
Language:

Himawari 4 - Orbit

View from above orbital plane
View from above orbital plane
View from above satellite
View from above satellite

Ground track
Ground track

The orbit data is extracted from the following two-line orbital elements,

1 20217U 89070A   17117.42800519 -.00000163 +00000-0 +00000-0 0  9993
2 20217 015.7280 014.3586 0044099 060.0654 258.9993 00.97412447100027
Epoch (UTC): 27 April 2017 10:16:19
Eccentricity: 0.0044099
inclination: 15.7280°
perigee height: 36418 km
apogee height: 36797 km
right ascension of ascending node: 14.3586°
argument of perigee: 60.0654°
revolutions per day: 0.97412447
mean anomaly at epoch: 258.9993°
orbit number at epoch: 10002

The dashed part of the orbit path shows where the satellite is in the earth's shadow,  

DLR